Terminal Aerodrome Forecast
Issued by NWS Flagstaff, AZ

Home | Current Version | Previous Version | Text Only | Print | Product List | Glossary On
Versions: 1 2 3 4 5 6 7 8 9 10 11 12
000
FTUS45 KFGZ 261700
TAFINW
TAF
KINW 261736Z 2618/2718 11008KT P6SM BKN250
     FM262100 VRB05KT P6SM FEW160 BKN200
     FM270500 VRB04KT P6SM SCT050 BKN090 PROB30 2705/2710 -SHRA
      BKN040=

USA.gov is the U.S. government's official web portal to all federal, state and local government web resources and services.